Mc Shan, Alabama
Current Conditions -  °F | °C
As of 1:58 PM on Saturday 20 Dec 2014 (Local Time) from KCBM Reporting Station
Clear Clear  
Wind Chill: 55°   Ceiling: Unl
Heat Index: 55°   Visibility: 10mi
Dew Point: 35°   Wind: 7mph
Humidity: 48%   Direction: NA
Pressure: 30.18"   Gusts: NA
Location:  33.3788°N, 88.1443°W
Report Text: KCBM 201958Z AUTO VRB06KT 10SM CLR 13/02 A3018 RMK AO2 SLP223 T01270018 $
Loading
Personal Weather Stations






























Interactive Weather Map New forecast layout! Learn more

10-Day Weather Forecast

Advertisements
Track Severe Weather on mobile